HELLAS-SAT 4 & SGS-1

Last updated on Thu Nov 21 2024 00:02:44 GMT+0000 (Coordinated Universal Time)

1 44034U 19007A 24324.23083056 .00000154 00000+0 00000+0 0 9992 2 44034 0.0647 122.2438 0005050 52.5566 6.0643 1.00270109 21591
UTC large
Height (km)
Speed (km/s)
/
Latitude / Longitude
Inclination (degrees)
Orbital Period (minutes)
Azimuth
Elevation
Range (km)
Doppler Factor

Next 0 passes for location: London (51.5072 / 0.1276)

Sorry there are no passes over London.